Regional Weather Roundup
Issued by NWS Newport/Morehead, NC

Current Version | Previous Version | Graphics & Text | Print | Product List | Glossary On
Versions: 1 2 3 4 5 6 7 8 9 10 11 12 13 14 15 16 17 18 19 20 21 22 23 24 25 26 27 28 29 30 31 32 33 34 35 36 37 38 39 40 41 42 43 44 45 46 47 48 49 50
000 ASUS42 KMHX 191922 RWRMHX WEATHER ROUNDUP FOR EASTERN NORTH CAROLINA NATIONAL WEATHER SERVICE NEWPORT/MOREHEAD CITY NC 300 PM EDT SUN OCT 19 2014 NOTE: "FAIR" INDICATES FEW OR NO CLOUDS BELOW 12,000 FEET WITH NO SIGNIFICANT WEATHER AND/OR OBSTRUCTIONS TO VISIBILITY NCZ015>017-031-032-045>047-102-103-192000- NORTH COAST CITY SKY/WX TMP DP RH WIND PRES REMARKS EDENTON SUNNY 65 36 33 NW15 30.03F ELIZABETH CITY MOSUNNY 66 40 38 NW15G25 30.02F KITTY HAWK CLEAR 63 39 41 NW8G18 30.01S MANTEO SUNNY 62 40 45 NW10G17 30.02F $$ NCZ045>047-081-094-103-104-192000- CENTRAL COAST CITY SKY/WX TMP DP RH WIND PRES REMARKS FRISCO SUNNY 63 43 48 N8G16 30.02S SWANQUARTER N/A 66 N/A N/A NW12G26 29.97F $$ NCZ095-097-098-100-101-192000- SOUTHERN COAST CITY SKY/WX TMP DP RH WIND PRES REMARKS BEAUFORT SUNNY 66 44 45 N14 30.04R CEDAR ISLAND N/A 64 N/A N/A NW12G24 30.06S JACKSONVILLE SUNNY 66 42 41 NW14 30.05S PINEY ISLAND CLEAR 67 42 40 N17 30.03S WILMINGTON SUNNY 68 43 40 NW10 30.05S $$ NCZ011>013-027>030-043-044-078>080-089-090>093-098-192000- COASTAL PLAIN CITY SKY/WX TMP DP RH WIND PRES REMARKS AHOSKIE SUNNY 62 38 40 N9 30.04F CLINTON SUNNY 66 45 46 NW5 30.07S ELIZABETHTOWN SUNNY 66 42 41 NW6 30.06F GOLDSBORO SUNNY 65 44 45 NW8 30.04F GREENVILLE SUNNY 64 41 42 N14 30.06F HAVELOCK SUNNY 66 41 40 NW10 30.05S KENANSVILLE SUNNY 64 39 39 N6 30.07S KINSTON SUNNY 66 41 39 N8 30.06F NEW BERN SUNNY 67 40 37 N15 30.05F RICHLANDS SUNNY 64 39 39 N7 30.05F ROCKY MOUNT SUNNY 65 40 39 N7G17 30.05F WASHINGTON SUNNY 64 40 41 NW5 30.05S WHITEVILLE SUNNY 67 43 42 N6 30.06S $$ AMZ130-135-150-152-154-156-158-170-250-252-270-ANZ085-086-088-633-658-670-192000- MARINE OBSERVATIONS STATION/POSITION TIME TEMP WIND PRES WAVE SWELL AIR SEA DIR/SP/G HT/PER HT/PER (UTC) (F) (DEG/KT/KT) (MB) (FT/S) (FT/S) CHESAPEAKE LIGHT 1900 57 320/ 22/ 24 1016.9 64 E VA BEACH 1900 58 70 320/ 21/ 29 1015.1 9/ 7 2/12 DUCK 1900 61 70 320/ 14/ 16 1015.5 2 E DUCK 1900 N/A 5/ 6 2/12 10 NE DUCK 1900 71 N/A 5/ 6 2/13 OREGON INLET 1900 61 70 330/ 13/ 20 1016.2 13E OREGON INLT 1900 75 N/A 7/ 7 2/11 HATTERAS CG 1900 62 68 340/ 14/ 20 1016.8 DIAMOND BUOY 1900 62 330/ 17/ 23 1016.1 5/12 3/12 17 S OCRACOKE 1800 VRB 17/ 21 1016.3 CAPE LOOKOUT 1900 63 330/ 10/ 13 1017.0 BEAUFORT LAB 1900 64 70 340/ 9/ 12 1016.4 30 SE NEW RIVER 1900 63 76 340/ 14/ 17 1016.8 3/ 4 2/11 5 SE WRIGHTSVLE 1900 62 74 330/ 6/ 8 N/A 225 S CAPE HAT 1759 73 80 340/ 19/ 23 1015.0 7/ 7 2/11 41 SE CHARLESTON 1900 66 80 10/ 12/ 16 1017.7 5/ 6 3/ 6 $$

USA.gov is the U.S. government's official web portal to all federal, state and local government web resources and services.